�N����,����,����,����,����,�C��,���x,�~����,�S�V����,�ő�u�ԕ���,,,
,,,,,,,,,����,����,����,�N��
yyyy/mm/dd,hh:mm:ss,(16),16����,m/s,��,%,mm,KW/�u,(16),16����,m/s,Time
2014/9/1,1:00:00,13,���k��,1.9,12.5,100,0,0,13,���k��,2.6,59
2014/9/1,2:00:00,13,���k��,1.4,11.9,100,0,0,13,���k��,2.7,6
2014/9/1,3:00:00,13,���k��,1.8,11.5,100,0,0,13,���k��,2.8,49
2014/9/1,4:00:00,12,��,1.8,11.1,100,0,0,12,��,2.5,23
2014/9/1,5:00:00,12,��,1.4,10.8,100,0,0,12,��,2.7,43
2014/9/1,6:00:00,12,��,1.4,13.1,100,0,0.07,12,��,2.7,39
2014/9/1,7:00:00,12,��,1.3,16.1,100,0,0.27,12,��,2.3,58
2014/9/1,8:00:00,13,���k��,0.9,19,86.4,0,0.47,14,�k��,2.8,18
2014/9/1,9:00:00,4,��,1.3,20.9,88,0,0.63,5,���쓌,3.4,47
2014/9/1,10:00:00,6,�쓌,3.2,20.4,77.2,0,0.78,5,���쓌,4.6,52
2014/9/1,11:00:00,6,�쓌,2.5,20.5,77.7,0,0.83,6,�쓌,5.4,59
2014/9/1,12:00:00,6,�쓌,2.1,20.9,72.7,0,0.85,6,�쓌,5.6,56
2014/9/1,13:00:00,6,�쓌,0.7,20.5,76,0,0.84,7,��쓌,4.7,20
2014/9/1,14:00:00,5,���쓌,1.5,20.5,81.2,0,0.78,5,���쓌,5.1,55
2014/9/1,15:00:00,6,�쓌,2.1,20.3,86.4,0,0.59,5,���쓌,6.2,3
2014/9/1,16:00:00,7,��쓌,3.3,20.6,83.5,0,0.42,8,��,6,53
2014/9/1,17:00:00,7,��쓌,1.9,19.9,85.8,0,0.25,9,��쐼,5.5,15
2014/9/1,18:00:00,6,�쓌,1.1,18.2,92.2,0,0.07,8,��,2.7,9
2014/9/1,19:00:00,4,��,1,16.4,97.7,0,0,6,�쓌,2.1,5
2014/9/1,20:00:00,3,�É�,0.1,15.4,98.4,0,0,4,��,1.8,7
2014/9/1,21:00:00,13,�É�,0.2,14.1,99.2,0,0,1,�k�k��,1.5,17
2014/9/1,22:00:00,12,��,1.2,14.6,99.8,0,0,12,��,1.9,50
2014/9/1,23:00:00,13,���k��,0.9,14.2,99.9,0,0,12,��,2,1
2014/9/1,0:00:00,14,�É�,0.1,14,100,0,0,12,��,1.7,5
2014/9/2,1:00:00,13,���k��,1.1,13.6,100,0,0,13,���k��,2.2,49
2014/9/2,2:00:00,12,��,1.7,13.5,100,0,0,12,��,2.3,52
2014/9/2,3:00:00,12,��,0.7,13.3,100,0,0,13,���k��,3.2,43
2014/9/2,4:00:00,13,���k��,2,14.7,100,0,0,13,���k��,3.3,46
2014/9/2,5:00:00,14,�k��,1.4,15.6,99.1,0,0,13,���k��,2.8,32
2014/9/2,6:00:00,14,�k��,2.3,15.8,97.8,0,0.02,14,�k��,3.2,52
2014/9/2,7:00:00,14,�k��,1.8,16.6,97.1,0,0.05,14,�k��,3.2,0
2014/9/2,8:00:00,14,�k��,1,17.7,95,0,0.1,14,�k��,2.7,15
2014/9/2,9:00:00,5,���쓌,1.2,19.3,94.4,0,0.23,5,���쓌,2.6,45
2014/9/2,10:00:00,2,�k��,2,20,86.6,0,0.37,2,�k��,3.2,53
2014/9/2,11:00:00,5,���쓌,2.5,20.7,83.2,0,0.43,5,���쓌,4.1,48
2014/9/2,12:00:00,5,���쓌,3.2,21.1,82.6,0,0.52,5,���쓌,4.7,44
2014/9/2,13:00:00,5,���쓌,3.2,22.5,78.6,0,0.66,4,��,5,13
2014/9/2,14:00:00,4,��,3.8,21.3,82.7,0,0.6,4,��,5.4,43
2014/9/2,15:00:00,4,��,3.2,20.8,87.9,0,0.5,5,���쓌,5.1,24
2014/9/2,16:00:00,5,���쓌,2.7,20.8,86.8,0,0.38,5,���쓌,4.6,34
2014/9/2,17:00:00,4,��,1.9,20.5,89.2,0,0.28,5,���쓌,3.8,7
2014/9/2,18:00:00,4,��,0.5,17.9,96.6,0,0.04,5,���쓌,2.5,22
2014/9/2,19:00:00,13,�É�,0.2,16.1,99.3,0,0,13,���k��,0.7,0
2014/9/2,20:00:00,12,��,1.5,15.1,99.9,0,0,12,��,2.1,32
2014/9/2,21:00:00,12,��,1.4,15.1,100,0,0,13,���k��,2.2,44
2014/9/2,22:00:00,12,��,0.7,15.5,100,0,0,14,�k��,1.8,29
2014/9/2,23:00:00,14,�k��,2,15.6,100,0,0,14,�k��,3,56
2014/9/2,0:00:00,13,���k��,1.3,15.9,100,0,0,14,�k��,2.9,16
2014/9/3,1:00:00,15,�k�k��,0.8,16.4,100,0,0,13,���k��,3.1,19
2014/9/3,2:00:00,13,���k��,0.6,16.5,100,0,0,14,�k��,1.4,4
2014/9/3,3:00:00,1,�k�k��,0.5,16.4,100,0,0,1,�k�k��,1,49
2014/9/3,4:00:00,16,�É�,0,16.5,100,0,0,14,�k��,0.9,22
2014/9/3,5:00:00,14,�k��,1.2,16.3,100,0,0,13,���k��,2.2,53
2014/9/3,6:00:00,14,�k��,0.6,16.5,100,0,0.04,14,�k��,1.3,58
2014/9/3,7:00:00,13,���k��,1.1,16.8,100,0,0.11,13,���k��,1.7,57
2014/9/3,8:00:00,13,���k��,1.1,16.8,96.4,0,0.13,12,��,2.5,33
2014/9/3,9:00:00,4,��,1.9,18.3,93.4,0,0.12,4,��,2.9,59
2014/9/3,10:00:00,5,���쓌,2.5,18.6,85.5,0,0.28,5,���쓌,4,47
2014/9/3,11:00:00,6,�쓌,1.6,21.5,81.5,0,0.49,5,���쓌,3.7,59
2014/9/3,12:00:00,5,���쓌,2.9,20.5,77.3,0,0.97,5,���쓌,5.2,12
2014/9/3,13:00:00,5,���쓌,3.1,20.2,79.2,0,0.84,6,�쓌,5.2,18
2014/9/3,14:00:00,4,��,3,19.9,79,0,0.78,6,�쓌,5.2,1
2014/9/3,15:00:00,5,���쓌,2.7,19.9,83.6,0,0.58,6,�쓌,5.4,35
2014/9/3,16:00:00,7,��쓌,1.7,18.5,85.1,0,0.33,5,���쓌,4.5,5
2014/9/3,17:00:00,7,��쓌,0.9,17.9,89.8,0,0.14,6,�쓌,2.9,16
2014/9/3,18:00:00,7,��쓌,0.6,17.3,93.4,0,0.03,6,�쓌,1.6,3
2014/9/3,19:00:00,12,��,0.4,16.3,97.3,0,0,8,��,1.5,19
2014/9/3,20:00:00,13,���k��,0.5,14.9,99,0,0,12,��,1.5,24
2014/9/3,21:00:00,12,��,1.3,14.3,99.9,0,0,12,��,2,50
2014/9/3,22:00:00,12,��,1.3,13.3,100,0,0,12,��,1.5,0
2014/9/3,23:00:00,12,��,1.5,13.1,100,0,0,12,��,2,54
2014/9/3,0:00:00,12,��,2,12.3,100,0,0,12,��,2.6,24
2014/9/4,1:00:00,12,��,1.3,12.6,100,0,0,12,��,2.5,1
2014/9/4,2:00:00,13,���k��,0.8,13.1,100,0,0,12,��,2.1,33
2014/9/4,3:00:00,12,��,1.7,13.5,100,0,0,13,���k��,2.3,4
2014/9/4,4:00:00,13,���k��,1.7,13.6,100,0,0,13,���k��,2.2,33
2014/9/4,5:00:00,13,���k��,1.2,13.4,100,0,0,13,���k��,2.5,32
2014/9/4,6:00:00,13,���k��,1.2,14.5,100,0,0.03,12,��,2.2,18
2014/9/4,7:00:00,14,�É�,0,16,100,0,0.11,12,��,2,27
2014/9/4,8:00:00,15,�k�k��,0.3,17.6,96.8,0,0.18,14,�k��,1.6,41
2014/9/4,9:00:00,5,���쓌,1.5,19.2,85.6,0,0.24,5,���쓌,2.6,52
2014/9/4,10:00:00,6,�쓌,3.3,19.6,78.6,0,0.41,6,�쓌,4.9,56
2014/9/4,11:00:00,7,��쓌,2.4,19.6,80.1,0,0.3,8,��,4.9,45
2014/9/4,12:00:00,7,��쓌,3.2,19.5,76.8,0,0.3,8,��,6.1,56
2014/9/4,13:00:00,7,��쓌,3.3,19.6,77.4,0,0.34,8,��,5.5,7
2014/9/4,14:00:00,7,��쓌,2.9,18.8,80.9,0,0.19,6,�쓌,5.9,58
2014/9/4,15:00:00,6,�쓌,2.6,18.6,82.2,0,0.11,7,��쓌,5.2,5
2014/9/4,16:00:00,6,�쓌,1.9,18.3,85.1,0,0.1,6,�쓌,5.5,22
2014/9/4,17:00:00,9,��쐼,0.7,18.2,88.6,0,0.03,6,�쓌,2.8,3
2014/9/4,18:00:00,8,��,1.5,18,89.8,0,0,8,��,3.6,58
2014/9/4,19:00:00,6,�쓌,2.4,18,90.6,0,0,6,�쓌,4.9,15
2014/9/4,20:00:00,6,�쓌,2.7,17.6,95.6,0.5,0,6,�쓌,4.4,52
2014/9/4,21:00:00,6,�쓌,4,17.7,96.7,1,0,6,�쓌,6.9,57
2014/9/4,22:00:00,6,�쓌,3.3,17.9,98.3,2,0,6,�쓌,7.2,12
2014/9/4,23:00:00,7,��쓌,3.4,18.1,98.9,7,0,6,�쓌,6.8,37
2014/9/4,0:00:00,7,��쓌,1.8,18.1,98.9,2,0,8,��,5.4,26
2014/9/5,1:00:00,7,��쓌,3.1,17.7,97,1,0,8,��,7.2,44
2014/9/5,2:00:00,7,��쓌,2.9,18.1,97.2,0.5,0,7,��쓌,6.1,52
2014/9/5,3:00:00,8,��,3.8,18.1,97.7,1.5,0,8,��,6.7,49
2014/9/5,4:00:00,6,�쓌,2.7,18.4,99.3,2,0,8,��,6.5,27
2014/9/5,5:00:00,6,�쓌,3.1,18.6,99.3,1,0,7,��쓌,7.1,22
2014/9/5,6:00:00,7,��쓌,3.7,19,99.3,0.5,0.02,6,�쓌,8.4,26
2014/9/5,7:00:00,8,��,3,19.3,98.3,0,0.03,8,��,8.6,11
2014/9/5,8:00:00,8,��,3,19,99.1,1.5,0.06,9,��쐼,7.5,28
2014/9/5,9:00:00,8,��,2.8,19,99.4,0,0.07,9,��쐼,8.7,4
2014/9/5,10:00:00,9,��쐼,3.7,19.2,99.1,0,0.11,8,��,8.4,42
2014/9/5,11:00:00,9,��쐼,3.6,19.6,98.8,0,0.1,8,��,7.3,40
2014/9/5,12:00:00,9,��쐼,3.6,19.7,96.5,0,0.13,9,��쐼,7.5,41
2014/9/5,13:00:00,9,��쐼,2.9,20.5,95.5,0,0.22,9,��쐼,8.3,41
2014/9/5,14:00:00,13,���k��,2.8,21.1,91.3,0,0.3,8,��,4.1,8
2014/9/5,15:00:00,14,�k��,1.4,24,84.1,0,0.59,12,��,5.1,9
2014/9/5,16:00:00,6,�쓌,2.2,21.6,92.5,0,0.24,14,�k��,4,0
2014/9/5,17:00:00,4,��,1.2,21.6,93.7,0,0.16,6,�쓌,3.7,4
2014/9/5,18:00:00,2,�k��,1.4,19.7,97.6,0,0.03,6,�쓌,3.1,35
2014/9/5,19:00:00,16,�k,0.3,18.4,99.2,0,0,1,�k�k��,2.5,0
2014/9/5,20:00:00,11,�É�,0.2,17.6,99.8,0.5,0,1,�k�k��,1.5,35
2014/9/5,21:00:00,13,���k��,0.9,17.6,100,0,0,14,�k��,2.2,58
2014/9/5,22:00:00,12,��,1.2,17,100,0,0,14,�k��,2.3,40
2014/9/5,23:00:00,13,���k��,0.7,17.2,100,0,0,13,���k��,3.1,14
2014/9/5,0:00:00,13,���k��,1.5,16.7,100,0,0,13,���k��,2.4,52
2014/9/6,1:00:00,2,�k��,0.8,15.9,100,0,0,13,���k��,3.1,15
2014/9/6,2:00:00,13,���k��,0.6,16.6,100,0,0,13,���k��,1.5,48
2014/9/6,3:00:00,8,��,0.9,16,100,0,0,12,��,2.1,15
2014/9/6,4:00:00,2,�k��,0.4,15.8,100,0,0,11,���쐼,2.1,13
2014/9/6,5:00:00,12,��,1.8,15.5,100,0,0,12,��,2.3,57
2014/9/6,6:00:00,12,��,2.2,16.1,100,0,0.06,13,���k��,3.2,48
2014/9/6,7:00:00,11,���쐼,3.3,19.5,75.1,0,0.28,11,���쐼,6.7,30
2014/9/6,8:00:00,9,��쐼,1.6,23,71.3,0,0.38,11,���쐼,4.1,2
2014/9/6,9:00:00,11,���쐼,3.1,23.7,65.3,0,0.5,11,���쐼,6,23
2014/9/6,10:00:00,12,��,3.3,24.8,60.2,0,0.64,11,���쐼,5.7,28
2014/9/6,11:00:00,8,��,0.6,26.4,52.6,0,0.75,11,���쐼,4.2,2
2014/9/6,12:00:00,4,��,1.3,25.7,59.8,0,0.85,4,��,5.4,35
2014/9/6,13:00:00,6,�É�,0,24.6,57.7,0,0.75,5,���쓌,1.6,7
2014/9/6,14:00:00,5,���쓌,0.3,25,57.5,0,0.55,6,�쓌,1.1,59
2014/9/6,15:00:00,6,�쓌,0.4,25.5,54.1,0,0.56,7,��쓌,1.6,46
2014/9/6,16:00:00,9,��쐼,2.2,23.8,67.5,0,0.33,8,��,3.3,58
2014/9/6,17:00:00,11,���쐼,3.3,22.6,70.5,0,0.14,10,�쐼,4.9,36
2014/9/6,18:00:00,13,���k��,1.2,20.3,84.6,0,0.02,10,�쐼,5.2,9
2014/9/6,19:00:00,13,���k��,1.9,17.9,91.4,0,0,11,���쐼,4,28
2014/9/6,20:00:00,13,���k��,1.7,17.6,93.2,0,0,13,���k��,2.7,7
2014/9/6,21:00:00,12,��,0.4,16.6,96.6,0,0,12,��,2.6,1
2014/9/6,22:00:00,12,��,1.5,15.7,98.2,0,0,12,��,2,50
2014/9/6,23:00:00,10,�쐼,1.4,15.6,97.4,0,0,12,��,2.5,17
2014/9/6,0:00:00,12,��,1,15.6,96.7,0,0,13,���k��,2.9,11
2014/9/7,1:00:00,12,��,1.5,15.5,97.1,0,0,13,���k��,3.2,50
2014/9/7,2:00:00,10,�쐼,1.4,15.3,95.9,0,0,12,��,3.5,21
2014/9/7,3:00:00,12,��,0.7,15.2,96.6,0,0,13,���k��,2.5,12
2014/9/7,4:00:00,14,�k��,1.3,14.5,97.2,0,0,14,�k��,2.4,59
2014/9/7,5:00:00,12,��,0.5,14.5,98.8,0,0,12,��,2.5,13
2014/9/7,6:00:00,9,��쐼,0.7,14.3,97.7,0,0.04,13,���k��,2.3,25
2014/9/7,7:00:00,10,�쐼,0.8,17.1,87,0,0.18,12,��,1.9,46
2014/9/7,8:00:00,12,��,0.3,20.5,77.1,0,0.45,12,��,2.1,11
2014/9/7,9:00:00,13,���k��,1.1,22.1,68.4,0,0.63,14,�k��,3.4,45
2014/9/7,10:00:00,7,��쓌,2.3,23.5,69.2,0,0.74,6,�쓌,3.9,33
2014/9/7,11:00:00,6,�쓌,0.8,21.7,69.7,0,0.85,5,���쓌,5.4,21
2014/9/7,12:00:00,6,�쓌,1.1,21.7,71.4,0,0.55,5,���쓌,4.6,21
2014/9/7,13:00:00,8,��,2.5,22.8,61.5,0,0.54,7,��쓌,4.7,55
2014/9/7,14:00:00,7,��쓌,2.5,22.1,71.1,0,0.59,8,��,5.2,40
2014/9/7,15:00:00,7,��쓌,2.5,21.5,70.9,0,0.65,7,��쓌,4.8,58
2014/9/7,16:00:00,8,��,1.9,20.6,75.9,0,0.45,6,�쓌,4.3,17
2014/9/7,17:00:00,6,�쓌,0.6,19.6,83.6,0,0.09,8,��,2.4,7
2014/9/7,18:00:00,15,�k�k��,0.3,17.7,95.4,0,0.01,4,��,1.2,7
2014/9/7,19:00:00,14,�k��,0.5,17.4,96.2,0,0,14,�k��,1.3,31
2014/9/7,20:00:00,14,�k��,1.7,17.4,93.3,0,0,14,�k��,2.5,54
2014/9/7,21:00:00,16,�k,1.1,17.1,96.8,0,0,14,�k��,3.6,29
2014/9/7,22:00:00,13,���k��,1.3,17.1,97.8,0,0,14,�k��,3.1,9
2014/9/7,23:00:00,1,�k�k��,1.4,16.7,96.4,0,0,2,�k��,3,47
2014/9/7,0:00:00,13,���k��,1.6,16.6,98,0,0,13,���k��,2.5,36
2014/9/8,1:00:00,13,���k��,2.3,16.7,97.3,0,0,13,���k��,3.6,54
2014/9/8,2:00:00,13,���k��,2.8,16.7,98.3,0,0,14,�k��,4.3,50
2014/9/8,3:00:00,15,�k�k��,0.9,16.7,97.7,0,0,13,���k��,3.3,22
2014/9/8,4:00:00,14,�k��,0.9,16.4,98.9,0.5,0,1,�k�k��,1.8,6
2014/9/8,5:00:00,13,���k��,1.8,15.6,98.8,0,0,13,���k��,2.8,57
2014/9/8,6:00:00,14,�k��,1.3,16.7,97,0,0.05,13,���k��,3.1,5
2014/9/8,7:00:00,14,�k��,1,17.3,94,0,0.11,14,�k��,3.1,8
2014/9/8,8:00:00,2,�k��,1.3,19.2,91.3,0,0.25,16,�k,2.3,18
2014/9/8,9:00:00,3,���k��,1.3,20.7,81.6,0,0.38,6,�쓌,3.5,59
2014/9/8,10:00:00,4,��,3.6,21.6,74.8,0,0.71,4,��,5.1,53
2014/9/8,11:00:00,5,���쓌,3.5,21.8,70.5,0,0.86,4,��,5.6,39
2014/9/8,12:00:00,5,���쓌,3.9,21,72.5,0,0.88,5,���쓌,6.1,39
2014/9/8,13:00:00,5,���쓌,3.4,21.3,73.2,0,0.83,5,���쓌,6.1,1
2014/9/8,14:00:00,8,��,2.1,19.7,83.7,0,0.62,5,���쓌,5.3,16
2014/9/8,15:00:00,9,��쐼,2.7,19.8,82.6,0,0.49,8,��,5.1,20
2014/9/8,16:00:00,7,��쓌,1.8,19.4,87.6,0,0.19,7,��쓌,4.2,15
2014/9/8,17:00:00,6,�쓌,2.1,19.3,87.2,0,0.16,7,��쓌,3.4,46
2014/9/8,18:00:00,6,�쓌,1.2,18,92.6,0,0.03,7,��쓌,3.3,0
2014/9/8,19:00:00,6,�쓌,0.9,17.8,90.6,0,0,7,��쓌,2.5,32
2014/9/8,20:00:00,6,�쓌,0.5,16.3,97.7,0,0,7,��쓌,1.5,24
2014/9/8,21:00:00,12,��,0.7,16.6,98.8,0,0,5,���쓌,1.3,0
2014/9/8,22:00:00,12,��,1,16.8,98.9,0,0,12,��,1.8,58
2014/9/8,23:00:00,13,���k��,1.8,17,98.7,0,0,12,��,2.5,48
2014/9/8,0:00:00,13,���k��,1.4,17.3,97.7,0,0,14,�k��,2.6,27
2014/9/9,1:00:00,13,���k��,1.4,16.7,98.8,0,0,13,���k��,3.1,0
2014/9/9,2:00:00,13,���k��,2.3,17.1,98.6,0,0,13,���k��,3.6,55
2014/9/9,3:00:00,14,�k��,1.1,16.7,98.8,0,0,14,�k��,3.1,8
2014/9/9,4:00:00,13,���k��,1.7,16.6,99.2,0,0,12,��,2.3,55
2014/9/9,5:00:00,14,�k��,1.4,16.9,98.5,0,0,14,�k��,2.7,42
2014/9/9,6:00:00,16,�k,1.5,17.4,97.4,0,0.02,2,�k��,3.1,45
2014/9/9,7:00:00,15,�k�k��,1.9,18.4,90.7,0,0.18,14,�k��,4,59
2014/9/9,8:00:00,1,�k�k��,1.7,19,93.3,0,0.18,15,�k�k��,3.8,2
2014/9/9,9:00:00,2,�k��,2.8,19.3,90.2,0,0.29,3,���k��,6.3,6
2014/9/9,10:00:00,2,�k��,2.8,18.1,97,1,0.22,2,�k��,4.5,1
2014/9/9,11:00:00,4,��,3.4,18,98,0.5,0.13,5,���쓌,7.4,59
2014/9/9,12:00:00,4,��,5.8,18.3,97.5,1,0.09,4,��,10.1,23
2014/9/9,13:00:00,3,���k��,5.2,18,96.1,0,0.19,5,���쓌,9,2
2014/9/9,14:00:00,4,��,5.4,17.9,95,0.5,0.1,4,��,8.9,26
2014/9/9,15:00:00,4,��,4.6,18.1,95.2,0,0.08,4,��,8.3,45
2014/9/9,16:00:00,4,��,5.4,18,94.2,0,0.07,4,��,8.2,42
2014/9/9,17:00:00,4,��,5.3,17.8,94.9,0,0.03,4,��,8.4,55
2014/9/9,18:00:00,4,��,5.4,17.9,94.8,0,0,4,��,7.6,56
2014/9/9,19:00:00,4,��,4,17.9,94.4,0,0,4,��,8,4
2014/9/9,20:00:00,4,��,4.2,17.8,93.5,0,0,4,��,7.5,15
2014/9/9,21:00:00,3,���k��,4.2,17.5,92.8,0,0,4,��,7.2,42
2014/9/9,22:00:00,4,��,5.3,17,92.3,0,0,4,��,8.4,44
2014/9/9,23:00:00,4,��,4.7,16.8,90.5,0,0,3,���k��,8.9,21
2014/9/9,0:00:00,4,��,4.8,16.7,89.6,0,0,4,��,8.3,0
2014/9/10,1:00:00,3,���k��,3.6,16.4,89.1,0,0,4,��,7.6,1
2014/9/10,2:00:00,3,���k��,2.4,16,89.5,0,0,3,���k��,5.2,6
2014/9/10,3:00:00,3,���k��,2.1,15.7,90,0,0,3,���k��,4.5,44
2014/9/10,4:00:00,3,���k��,2.9,16,90.4,0,0,4,��,5.1,53
2014/9/10,5:00:00,1,�k�k��,1.7,15.3,93.3,0,0,3,���k��,3.8,0
2014/9/10,6:00:00,16,�k,0.9,15.4,93.4,0,0.02,2,�k��,2.6,6
2014/9/10,7:00:00,2,�k��,1.8,15.4,92.6,0,0.04,1,�k�k��,3,34
2014/9/10,8:00:00,1,�k�k��,1.1,15.9,91.3,0,0.07,2,�k��,3,7
2014/9/10,9:00:00,1,�k�k��,2.1,16.4,87.7,0,0.15,1,�k�k��,3.2,59
2014/9/10,10:00:00,1,�k�k��,1.1,17.2,87.1,0,0.27,1,�k�k��,3.2,0
2014/9/10,11:00:00,4,��,2.7,17.9,80.5,0,0.3,5,���쓌,4,52
2014/9/10,12:00:00,5,���쓌,3,18.4,82.8,0,0.39,6,�쓌,4.5,35
2014/9/10,13:00:00,5,���쓌,4,19.6,75.3,0,0.69,5,���쓌,5.7,54
2014/9/10,14:00:00,4,��,4,18.6,81.1,0,0.7,5,���쓌,6.2,12
2014/9/10,15:00:00,6,�쓌,2.5,17.8,80.9,0,0.28,6,�쓌,5.4,23
2014/9/10,16:00:00,5,���쓌,2.6,17.9,83.8,0,0.17,5,���쓌,4.6,9
2014/9/10,17:00:00,5,���쓌,2,17.3,85.6,0,0.06,6,�쓌,3.9,11
2014/9/10,18:00:00,5,���쓌,1.7,16.9,90,0,0.01,5,���쓌,2.5,1
2014/9/10,19:00:00,5,���쓌,1.3,16.7,91.4,0,0,5,���쓌,3.6,20
2014/9/10,20:00:00,4,��,1.8,15.8,95.4,0,0,4,��,2.7,29
2014/9/10,21:00:00,3,���k��,1.1,16.4,94.7,0,0,4,��,2.4,35
2014/9/10,22:00:00,4,��,3.9,17.1,91.7,0,0,4,��,5.6,52
2014/9/10,23:00:00,6,�쓌,2.7,16.7,93.7,0,0,4,��,6.3,15
2014/9/10,0:00:00,15,�k�k��,0.8,15.8,99.3,2,0,9,��쐼,3.8,0
2014/9/11,1:00:00,2,�k��,1.7,15.7,99.6,4.5,0,3,���k��,2.5,53
2014/9/11,2:00:00,3,���k��,2.3,16.4,97.6,0,0,2,�k��,3.7,37
2014/9/11,3:00:00,2,�k��,2.5,16.2,97.3,0,0,1,�k�k��,5.4,39
2014/9/11,4:00:00,4,��,1.8,16.6,97.5,0,0,3,���k��,4.4,12
2014/9/11,5:00:00,1,�k�k��,1.2,16.3,98,0.5,0,1,�k�k��,2.7,41
2014/9/11,6:00:00,6,�쓌,1.9,17.5,90.7,0,0.01,7,��쓌,4.7,57
2014/9/11,7:00:00,6,�쓌,2.9,17.9,87.4,0,0.02,6,�쓌,6.1,27
2014/9/11,8:00:00,6,�쓌,3.6,18.3,86.7,0,0.08,7,��쓌,6.8,49
2014/9/11,9:00:00,7,��쓌,3.7,18.6,83.3,0,0.1,7,��쓌,7.1,49
2014/9/11,10:00:00,6,�쓌,4.3,18.7,83.5,0,0.15,6,�쓌,7.9,55
2014/9/11,11:00:00,6,�쓌,4.1,18.5,83.7,0,0.16,6,�쓌,8.7,12
2014/9/11,12:00:00,6,�쓌,4.2,16.9,94.7,3.5,0.06,6,�쓌,7.6,7
2014/9/11,13:00:00,6,�쓌,4.3,17,94.8,3,0.11,7,��쓌,8.5,50
2014/9/11,14:00:00,4,��,2.4,16.7,94.7,5.5,0.05,6,�쓌,7.1,18
2014/9/11,15:00:00,6,�쓌,3.9,16.9,91.2,1,0.02,6,�쓌,7.4,57
2014/9/11,16:00:00,4,��,2.6,16.5,98.4,8,0.01,6,�쓌,6.1,0
2014/9/11,17:00:00,4,��,5,16.5,97.6,5,0.02,4,��,8.4,24
2014/9/11,18:00:00,4,��,7,16.1,97.9,5,0.01,5,���쓌,9.4,49
2014/9/11,19:00:00,4,��,4.6,16.2,97.9,3,0,4,��,9,0
2014/9/11,20:00:00,4,��,6.2,16.8,96.6,1.5,0,4,��,9.5,53
2014/9/11,21:00:00,5,���쓌,4.4,16.9,96.4,0.5,0,5,���쓌,8.1,32
2014/9/11,22:00:00,5,���쓌,4.1,17.1,94.9,0,0,5,���쓌,8.4,29
2014/9/11,23:00:00,7,��쓌,3.1,17.1,93.3,0,0,5,���쓌,7.3,3
2014/9/11,0:00:00,7,��쓌,2,17.1,94.8,0,0,7,��쓌,5.2,34
2014/9/12,1:00:00,8,��,0.3,16.2,95.6,0,0,7,��쓌,3.6,0
2014/9/12,2:00:00,3,���k��,2.5,16,98.6,0,0,5,���쓌,6.1,59
2014/9/12,3:00:00,3,���k��,3.3,15.8,99.4,1.5,0,5,���쓌,7.7,5
2014/9/12,4:00:00,3,���k��,4,16.1,99.7,8.5,0,3,���k��,6.6,55
2014/9/12,5:00:00,3,���k��,4.3,16.3,99.5,3.5,0,3,���k��,7.7,18
2014/9/12,6:00:00,3,���k��,5.2,15.8,97.4,0.5,0.01,3,���k��,8.2,32
2014/9/12,7:00:00,3,���k��,6.1,15.2,98.2,0,0.05,4,��,10.1,55
2014/9/12,8:00:00,3,���k��,4.3,15.6,97.5,0,0.05,3,���k��,8.8,1
2014/9/12,9:00:00,3,���k��,5.4,15.7,93.9,0,0.11,3,���k��,9,18
2014/9/12,10:00:00,3,���k��,5.6,15.9,91.6,0,0.14,3,���k��,9,50
2014/9/12,11:00:00,3,���k��,5.7,16.6,89.4,0,0.24,3,���k��,9.6,27
2014/9/12,12:00:00,3,���k��,5.6,16.3,87,0,0.34,3,���k��,10.5,17
2014/9/12,13:00:00,3,���k��,3.1,15.8,88.7,0,0.15,3,���k��,9.4,1
2014/9/12,14:00:00,2,�k��,2.4,15.7,88.5,0,0.1,2,�k��,5.9,1
2014/9/12,15:00:00,2,�k��,1.9,16.4,86,0,0.17,4,��,4.5,25
2014/9/12,16:00:00,2,�k��,1.3,16,89.3,0,0.16,3,���k��,3.4,41
2014/9/12,17:00:00,1,�k�k��,0.9,15.7,90.8,0,0.08,2,�k��,1.9,35
2014/9/12,18:00:00,13,���k��,0.9,15.3,94.2,0,0.02,14,�k��,1.9,40
2014/9/12,19:00:00,16,�k,0.8,14.8,95.6,0,0,1,�k�k��,2,21
2014/9/12,20:00:00,14,�k��,0.7,14.3,95.1,0.5,0,14,�k��,1.3,48
2014/9/12,21:00:00,16,�k,1,14,97.1,0.5,0,15,�k�k��,2,56
2014/9/12,22:00:00,1,�k�k��,0.7,13.8,96.8,0.5,0,15,�k�k��,1.9,27
2014/9/12,23:00:00,14,�k��,1.1,13.7,97.2,0.5,0,14,�k��,1.7,59
2014/9/12,0:00:00,13,���k��,1.6,13.7,98.4,0,0,14,�k��,2.4,57
2014/9/13,1:00:00,13,���k��,1.4,13.6,97.8,0,0,13,���k��,3.1,58
2014/9/13,2:00:00,14,�k��,2.3,13.6,97.6,0,0,14,�k��,4,54
2014/9/13,3:00:00,13,���k��,2.6,13.7,96.5,0,0,13,���k��,5.4,27
2014/9/13,4:00:00,14,�k��,2.2,13.7,96,0.5,0,14,�k��,4.3,47
2014/9/13,5:00:00,14,�k��,1.7,13.5,95.4,0,0,14,�k��,3.6,49
2014/9/13,6:00:00,13,���k��,2.1,13.5,94.7,0,0.01,14,�k��,3.7,50
2014/9/13,7:00:00,14,�k��,2.3,13.9,92.2,0,0.04,13,���k��,5.1,8
2014/9/13,8:00:00,15,�k�k��,1.7,15,86.8,0,0.11,14,�k��,5.2,9
2014/9/13,9:00:00,15,�k�k��,1.1,15.5,83.8,0,0.17,1,�k�k��,4.8,28
2014/9/13,10:00:00,1,�k�k��,2.8,16.6,79.1,0,0.34,1,�k�k��,5.5,57
2014/9/13,11:00:00,1,�k�k��,2.4,16.9,74.5,0,0.44,1,�k�k��,4.6,41
2014/9/13,12:00:00,2,�k��,2.6,17.2,79.3,0,0.35,1,�k�k��,5,18
2014/9/13,13:00:00,16,�k,3.3,17.9,74.1,0,0.41,1,�k�k��,6.3,57
2014/9/13,14:00:00,1,�k�k��,3.6,17.7,72.4,0,0.41,1,�k�k��,6.4,20
2014/9/13,15:00:00,1,�k�k��,1.3,17,75.6,0,0.16,3,���k��,5.9,31
2014/9/13,16:00:00,1,�k�k��,2.1,16.2,76.8,0,0.07,2,�k��,5.7,24
2014/9/13,17:00:00,12,��,1.3,15.5,81.8,0,0.04,1,�k�k��,2.9,30
2014/9/13,18:00:00,13,���k��,1.6,14.8,83.7,0,0.01,13,���k��,3.6,17
2014/9/13,19:00:00,14,�k��,1.8,14.5,83.9,0,0,13,���k��,3.1,58
2014/9/13,20:00:00,15,�k�k��,1.9,14.4,79.8,0,0,15,�k�k��,4.4,15
2014/9/13,21:00:00,14,�k��,1.7,13.6,88.1,0,0,15,�k�k��,4,4
2014/9/13,22:00:00,14,�k��,2.2,13.4,85.2,0,0,14,�k��,3.8,58
2014/9/13,23:00:00,14,�k��,2.3,13,85.4,0,0,14,�k��,4.3,25
2014/9/13,0:00:00,13,���k��,1.3,12.9,87,0,0,13,���k��,3.7,3
2014/9/14,1:00:00,13,���k��,1.6,12.9,85.1,0,0,14,�k��,2.6,9
2014/9/14,2:00:00,13,���k��,1.9,12.5,88.5,0,0,14,�k��,3.2,51
2014/9/14,3:00:00,12,��,1.6,12.3,92.1,0,0,12,��,2.4,38
2014/9/14,4:00:00,12,�É�,0.2,12.2,88.6,0,0,12,��,2.2,2
2014/9/14,5:00:00,14,�k��,2.1,12.5,83.8,0,0,14,�k��,3.2,58
2014/9/14,6:00:00,12,��,1.2,12.2,91.5,0,0.02,14,�k��,3.1,1
2014/9/14,7:00:00,13,���k��,1.5,13.5,82.4,0,0.11,12,��,2.2,56
2014/9/14,8:00:00,14,�k��,1.9,14.8,69.4,0,0.42,14,�k��,3.7,57
2014/9/14,9:00:00,14,�k��,1.7,16.5,68.7,0,0.62,14,�k��,4.7,12
2014/9/14,10:00:00,14,�k��,1.3,16.7,67.2,0,0.52,14,�k��,4.5,9
2014/9/14,11:00:00,1,�k�k��,2.3,16.7,68.3,0,0.47,15,�k�k��,4.2,54
2014/9/14,12:00:00,15,�k�k��,1.7,17.4,68.9,0,0.39,1,�k�k��,6.8,0
2014/9/14,13:00:00,4,��,3.9,17.1,67.1,0,0.42,4,��,5.5,55
2014/9/14,14:00:00,5,���쓌,3.2,17.2,67.8,0,0.49,4,��,6,3
2014/9/14,15:00:00,5,���쓌,3.3,16.8,66.7,0,0.33,5,���쓌,4.5,53
2014/9/14,16:00:00,6,�쓌,2.4,15.9,69.8,0,0.24,7,��쓌,3.8,28
2014/9/14,17:00:00,6,�쓌,1.4,15.6,76.6,0,0.09,6,�쓌,3.3,2
2014/9/14,18:00:00,8,�É�,0,14.6,89.9,0,0.02,5,���쓌,2,1
2014/9/14,19:00:00,10,�É�,0,14.2,91.6,0,0,11,���쐼,1.7,40
2014/9/14,20:00:00,12,��,0.9,14,95.3,0,0,11,���쐼,2,34
2014/9/14,21:00:00,15,�É�,0.2,13.6,93.7,0,0,12,��,1.7,11
2014/9/14,22:00:00,12,��,1.8,13,97.6,0,0,13,���k��,2.4,40
2014/9/14,23:00:00,12,��,1,12.9,97.8,0,0,13,���k��,2.2,19
2014/9/14,0:00:00,13,���k��,1.3,11.4,99.7,0,0,13,���k��,2,57
2014/9/15,1:00:00,13,���k��,1.3,11,99.6,0,0,13,���k��,2.4,8
2014/9/15,2:00:00,13,���k��,1.9,10.4,100,0,0,12,��,2.9,57
2014/9/15,3:00:00,13,���k��,1.9,9.9,99.6,0,0,14,�k��,3.4,8
2014/9/15,4:00:00,13,���k��,2.2,10.1,100,0,0,13,���k��,3.8,43
2014/9/15,5:00:00,13,���k��,1.2,9.4,99.9,0,0,13,���k��,2.9,0
2014/9/15,6:00:00,13,���k��,1.6,10.8,96.5,0,0.04,13,���k��,3.4,43
2014/9/15,7:00:00,13,���k��,1.3,12,96.3,0,0.08,13,���k��,3.4,20
2014/9/15,8:00:00,13,���k��,0.3,14,92.6,0,0.18,13,���k��,2.6,17
2014/9/15,9:00:00,5,���쓌,1.7,16.7,85,0,0.38,6,�쓌,3.3,53
2014/9/15,10:00:00,4,��,2.8,17.1,85.5,0,0.41,4,��,3.9,53
2014/9/15,11:00:00,5,���쓌,3.5,17.4,83.1,0,0.54,5,���쓌,5.7,50
2014/9/15,12:00:00,4,��,3.1,18.8,77.6,0,0.84,4,��,5.5,32
2014/9/15,13:00:00,6,�쓌,2.6,17.9,78.4,0,0.73,5,���쓌,5.7,6
2014/9/15,14:00:00,6,�쓌,3.2,17.8,81.4,0,0.73,5,���쓌,5.4,30
2014/9/15,15:00:00,5,���쓌,3.1,17,85.8,0,0.39,5,���쓌,4.9,14
2014/9/15,16:00:00,6,�쓌,2.1,16.6,89.1,0,0.2,5,���쓌,4.5,0
2014/9/15,17:00:00,6,�쓌,1.4,16.3,92.1,0,0.08,6,�쓌,3.2,36
2014/9/15,18:00:00,7,��쓌,0.7,15.6,94.5,0,0.02,6,�쓌,2.7,2
2014/9/15,19:00:00,14,�É�,0,13.9,98.4,0,0,10,�쐼,1.4,19
2014/9/15,20:00:00,15,�k�k��,0.4,12.8,99.9,0,0,13,���k��,1,59
2014/9/15,21:00:00,13,���k��,1.7,12.9,100,0,0,14,�k��,2.3,59
2014/9/15,22:00:00,13,���k��,2,13.1,100,0,0,13,���k��,2.5,53
2014/9/15,23:00:00,14,�k��,0.8,14,99.7,0,0,13,���k��,3.2,40
2014/9/15,0:00:00,13,���k��,2.3,14,98.7,0,0,13,���k��,3.5,57
2014/9/16,1:00:00,14,�k��,1.3,13.9,98.5,0,0,14,�k��,2.8,48
2014/9/16,2:00:00,13,���k��,1.5,13.9,98.6,0,0,13,���k��,3.4,45
2014/9/16,3:00:00,12,��,2.2,14,99.2,0,0,12,��,3.1,55
2014/9/16,4:00:00,12,��,0.7,13.5,98.5,0,0,14,�k��,2.2,9
2014/9/16,5:00:00,13,���k��,0.7,13.3,99.8,0,0,12,��,1.9,30
2014/9/16,6:00:00,13,���k��,2,13.7,99.8,0,0.02,13,���k��,3.2,54
2014/9/16,7:00:00,12,��,1.4,14.7,95.1,0,0.07,12,��,3,15
2014/9/16,8:00:00,6,�쓌,1,16.6,88.3,0,0.31,6,�쓌,3.6,41
2014/9/16,9:00:00,7,��쓌,1.8,17.7,81,0,0.58,7,��쓌,3.1,50
2014/9/16,10:00:00,4,��,1.7,18,87.6,0,0.49,5,���쓌,4.1,38
2014/9/16,11:00:00,5,���쓌,2.7,17.6,87.8,0,0.49,5,���쓌,4.6,48
2014/9/16,12:00:00,6,�쓌,2.3,17.3,89.2,0,0.53,5,���쓌,5,17
2014/9/16,13:00:00,6,�쓌,1.4,17.9,91.8,0,0.21,7,��쓌,4.4,4
2014/9/16,14:00:00,3,���k��,1.9,18.1,91.9,0,0.2,3,���k��,3.1,58
2014/9/16,15:00:00,15,�k�k��,1.5,17.3,97.3,3,0.04,2,�k��,3.9,5
2014/9/16,16:00:00,13,���k��,2.1,15.9,83.3,0.5,0.23,15,�k�k��,8.1,5
2014/9/16,17:00:00,12,��,2.3,14.9,88.6,0,0.19,13,���k��,4,48
2014/9/16,18:00:00,11,���쐼,1.4,11.6,98.7,0,0.02,12,��,2.5,1
2014/9/16,19:00:00,12,��,2.3,10.8,99.8,0,0,13,���k��,3.1,58
2014/9/16,20:00:00,13,���k��,2.5,11.8,100,0,0,13,���k��,4.3,59
2014/9/16,21:00:00,12,��,1.4,11.7,98.6,0,0,14,�k��,4,0
2014/9/16,22:00:00,16,�k,0.7,12.2,97.9,0,0,10,�쐼,2.3,42
2014/9/16,23:00:00,12,��,1,12,98.4,0,0,11,���쐼,2.5,58
2014/9/16,0:00:00,12,��,1.6,10.4,98.1,0,0,12,��,5.1,5
2014/9/17,1:00:00,13,���k��,1.6,10.4,98.9,0,0,12,��,4.5,17
2014/9/17,2:00:00,13,���k��,1.8,9.9,96.5,0,0,13,���k��,3.7,48
2014/9/17,3:00:00,13,���k��,1.5,9.7,98.4,0,0,12,��,3.3,21
2014/9/17,4:00:00,13,���k��,2.8,8.7,97.7,0,0,12,��,3.6,55
2014/9/17,5:00:00,14,�k��,1.3,9.3,95.9,0,0,13,���k��,4.1,44
2014/9/17,6:00:00,12,��,1.3,8.8,98.6,0,0.05,12,��,2.7,49
2014/9/17,7:00:00,13,���k��,1.1,11.7,88.4,0,0.24,12,��,3.4,24
2014/9/17,8:00:00,12,��,0.7,15.2,78.2,0,0.44,14,�k��,2.5,13
2014/9/17,9:00:00,7,��쓌,1.3,17.2,69.4,0,0.62,5,���쓌,4.2,39
2014/9/17,10:00:00,5,���쓌,2,18.8,63.5,0,0.76,6,�쓌,4,38
2014/9/17,11:00:00,11,���쐼,6.2,19.8,48.6,0,0.82,11,���쐼,10,49
2014/9/17,12:00:00,11,���쐼,3.8,18.8,51.3,0,0.69,12,��,8.8,38
2014/9/17,13:00:00,10,�쐼,2.6,18.5,51.1,0,0.47,12,��,8.5,5
2014/9/17,14:00:00,11,���쐼,3.3,18.2,60.4,0,0.43,10,�쐼,5.4,42
2014/9/17,15:00:00,2,�k��,2.4,17,65.1,0,0.4,11,���쐼,6,9
2014/9/17,16:00:00,4,��,2.2,15.7,77,0,0.08,4,��,4.1,14
2014/9/17,17:00:00,14,�k��,1.6,14.8,85.6,0,0.02,3,���k��,3.9,17
2014/9/17,18:00:00,2,�k��,2,12.5,91.6,0,0.01,3,���k��,2.8,59
2014/9/17,19:00:00,2,�k��,0.4,11.1,97.7,0,0,11,���쐼,3.1,41